{"data":{"norad_id":65365,"intl_designator":"2025-190Q","name":"STARLINK-34710","alt_names":[],"object_type":"PAYLOAD","status":"ACTIVE","operator":null,"country":"US","launch_date":"2025-08-28","launch_site_code":"AFETR","launch_vehicle":null,"mission":null,"orbit_class":"UNKNOWN","rcs_meters":null,"size_class":null,"mass_kg":null,"dimensions":null,"purposes":["comms"],"wikipedia_slug":null,"has_3d_model":false,"image_url":null,"decayed_at":null,"tle_current":{"epoch":"2026-09-20T22:41:47.093280Z","epoch_age_seconds":79140,"freshness":"FRESH","line1":"1 65365U 25190Q   26263.94568395  .00012506  00000+0  38070-3 0  9994","line2":"2 65365  53.1615 339.5432 0001329  72.6272 287.4876 15.34395711 59205","mean_motion":15.34395711,"eccentricity":0.0001329,"inclination_deg":53.1615,"raan_deg":339.5432,"arg_perigee_deg":72.6272,"mean_anomaly_deg":287.4876,"bstar":0.0003807,"rev_number":5920,"period_min":93.848020408081,"perigee_km":461.80683868655,"apogee_km":463.62513741078,"semimajor_km":6840.8529880487,"source":"CELESTRAK","updated_at":"2026-09-21T09:00:35.577975Z"}}}